Location: Betpouey
(42.8833°N, 0.0333°E)
Time: 08:26:45
(UTC+00:00)

Okean O Rocket - Pass Details

Date: 01 December 2020
Orbit: 623 x 644 km, 98.2° (Epoch: 17 January)

Event Time Altitude Azimuth Distance (km) Brightness Sun altitude
Rises 17:55:19 0° 181° (S) 2,895 5.2 -15.8°
Reaches altitude 10° 17:57:34 10° 188° (S) 1,996 4.4 -16.2°
Maximum altitude 18:01:43 45° 261° (W) 866 2.8 -17.0°
Drops below altitude 10° 18:05:57 10° 334° (NNW) 2,023 4.3 -17.7°
Sets 18:08:15 0° 341° (NNW) 2,940 5.1 -18.1°
